Precipitable_Water
0.41 0.42 0.44 0.46 0.48 0.47 0.46 0.44 0.43 0.43 0.42 0.41 0.39 0.38 0.37 0.36 0.36 0.36 0.37 0.37 0.37 0.37 0.39 0.36 0.39 0.43 0.44 0.46 0.47 0.49 0.47 0.37 0.36 0.37 0.36 0.37 0.63 0.60 0.57 0.52 0.48 0.46 0.41 0.41 0.54 0.78 0.68 0.75 0.77 1.04 1.17 1.16 1.13 1.07 1.27 1.33 1.36 1.37 1.24 1.16 1.13 1.15 1.10 1.26 1.24 1.27 1.38 1.33 1.45 1.52 1.58 1.54 1.39 1.52 1.54 1.66 1.53 1.54 1.53 1.45 1.53 1.57 1.59 1.66 1.61 1.66 1.65 1.62
0.39 0.42 0.43 0.45 0.46 0.46 0.45 0.44 0.43 0.42 0.42 0.42 0.40 0.39 0.37 0.36 0.36 0.35 0.36 0.35 0.36 0.36 0.36 0.38 0.36 0.41 0.43 0.43 0.46 0.47 0.42 0.36 0.32 0.36 0.36 0.62 0.60 0.60 0.56 0.53 0.46 0.41 0.37 0.34 0.46 0.70 0.70 0.72 0.82 0.98 1.08 0.96 1.18 1.02 1.17 1.13 1.32 1.04 1.04 1.17 1.03 1.14 1.23 1.36 1.37 1.41 1.35 1.37 1.45 1.46 1.57 1.55 1.39 1.48 1.52 1.42 1.42 1.38 1.35 1.38 1.47 1.45 1.58 1.61 1.61 1.62 1.58 1.54
0.41 0.41 0.42 0.43 0.45 0.46 0.45 0.44 0.43 0.42 0.42 0.41 0.40 0.38 0.37 0.36 0.35 0.35 0.35 0.35 0.34 0.34 0.35 0.35 0.36 0.39 0.39 0.42 0.43 0.45 0.40 0.33 0.45 0.42 0.58 0.70 0.63 0.56 0.53 0.50 0.49 0.41 0.34 0.30 0.49 0.75 0.71 0.84 0.91 0.97 0.97 0.87 0.98 0.91 1.05 1.07 1.21 1.12 0.91 0.95 1.12 1.23 1.27 1.36 1.45 1.43 1.51 1.47 1.45 1.50 1.55 1.51 1.57 1.54 1.56 1.41 1.39 1.42 1.37 1.34 1.39 1.39 1.41 1.44 1.52 1.57 1.54 1.48
0.40 0.40 0.41 0.44 0.45 0.46 0.45 0.43 0.42 0.42 0.42 0.40 0.39 0.38 0.36 0.36 0.35 0.35 0.35 0.34 0.34 0.34 0.34 0.35 0.35 0.39 0.40 0.39 0.43 0.44 0.42 0.36 0.44 0.65 0.76 0.79 0.70 0.64 0.53 0.54 0.55 0.43 0.35 0.35 0.60 0.79 0.82 1.01 1.03 0.98 0.93 0.69 0.89 0.89 0.91 1.00 1.00 1.13 0.99 0.88 1.06 1.22 1.19 1.31 1.45 1.50 1.53 1.55 1.52 1.50 1.58 1.46 1.52 1.53 1.50 1.49 1.34 1.45 1.46 1.53 1.43 1.37 1.39 1.40 1.48 1.52 1.50 1.43
0.39 0.39 0.40 0.43 0.44 0.45 0.44 0.43 0.42 0.41 0.40 0.40 0.39 0.37 0.37 0.36 0.35 0.34 0.34 0.33 0.33 0.33 0.34 0.33 0.34 0.39 0.38 0.42 0.41 0.43 0.37 0.22 0.51 0.69 0.77 0.65 0.59 0.60 0.59 0.59 0.59 0.46 0.32 0.37 0.64 0.80 0.77 0.87 0.97 0.95 0.83 0.75 0.75 0.89 0.81 0.99 0.99 0.98 0.95 1.04 1.22 1.30 1.17 1.32 1.45 1.58 1.53 1.64 1.55 1.52 1.46 1.44 1.63 1.62 1.43 1.44 1.34 1.31 1.50 1.58 1.66 1.55 1.44 1.41 1.43 1.48 1.47 1.42
0.38 0.38 0.39 0.42 0.43 0.44 0.44 0.42 0.40 0.40 0.40 0.38 0.38 0.37 0.36 0.36 0.35 0.34 0.32 0.32 0.31 0.32 0.33 0.34 0.36 0.39 0.41 0.40 0.40 0.38 0.32 0.22 0.52 0.63 0.74 0.67 0.66 0.65 0.63 0.62 0.62 0.51 0.33 0.45 0.56 0.71 0.74 0.74 0.82 0.76 0.72 0.69 0.70 0.69 0.87 0.81 0.97 0.77 0.81 0.83 1.01 1.22 1.16 1.30 1.42 1.53 1.59 1.52 1.49 1.46 1.53 1.61 1.47 1.39 1.49 1.49 1.37 1.48 1.66 1.63 1.62 1.64 1.53 1.49 1.52 1.49 1.42 1.41
0.39 0.38 0.39 0.41 0.42 0.43 0.42 0.41 0.40 0.39 0.39 0.38 0.38 0.37 0.37 0.36 0.35 0.34 0.33 0.32 0.31 0.31 0.33 0.34 0.38 0.39 0.38 0.43 0.43 0.31 0.23 0.38 0.50 0.67 0.59 0.63 0.63 0.70 0.70 0.68 0.65 0.49 0.35 0.47 0.52 0.60 0.72 0.67 0.66 0.69 0.67 0.60 0.66 0.70 0.75 0.82 0.81 0.70 0.70 0.84 1.00 1.24 1.27 1.39 1.36 1.45 1.49 1.53 1.43 1.57 1.64 1.43 1.46 1.35 1.56 1.42 1.50 1.55 1.64 1.72 1.74 1.67 1.56 1.52 1.46 1.48 1.44 1.43
0.39 0.39 0.39 0.40 0.42 0.43 0.42 0.41 0.40 0.39 0.38 0.38 0.37 0.37 0.37 0.35 0.33 0.34 0.33 0.32 0.31 0.32 0.35 0.36 0.38 0.42 0.44 0.37 0.30 0.32 0.25 0.38 0.45 0.64 0.60 0.59 0.57 0.69 0.75 0.73 0.59 0.45 0.36 0.43 0.49 0.56 0.70 0.61 0.59 0.65 0.63 0.52 0.58 0.60 0.70 0.69 0.74 0.66 0.63 0.69 0.82 1.11 1.33 1.36 1.39 1.39 1.39 1.53 1.64 1.56 1.47 1.36 1.44 1.43 1.51 1.38 1.46 1.55 1.64 1.75 1.71 1.62 1.55 1.48 1.45 1.45 1.46 1.44
0.39 0.38 0.38 0.40 0.42 0.44 0.43 0.41 0.40 0.39 0.38 0.38 0.37 0.36 0.37 0.35 0.33 0.33 0.33 0.32 0.32 0.34 0.36 0.41 0.40 0.43 0.47 0.35 0.20 0.21 0.40 0.45 0.48 0.50 0.69 0.65 0.62 0.70 0.73 0.61 0.59 0.43 0.38 0.44 0.48 0.64 0.67 0.57 0.61 0.63 0.52 0.45 0.56 0.58 0.62 0.57 0.56 0.66 0.65 0.67 0.70 0.76 1.19 1.31 1.38 1.39 1.49 1.49 1.47 1.34 1.29 1.39 1.45 1.48 1.33 1.52 1.52 1.60 1.71 1.65 1.66 1.53 1.46 1.45 1.43 1.43 1.43 1.41
0.40 0.39 0.39 0.40 0.41 0.44 0.43 0.42 0.40 0.39 0.39 0.39 0.37 0.36 0.36 0.34 0.34 0.34 0.33 0.35 0.37 0.39 0.40 0.42 0.46 0.45 0.37 0.29 0.36 0.33 0.38 0.48 0.48 0.46 0.46 0.55 0.47 0.64 0.66 0.61 0.57 0.46 0.39 0.40 0.46 0.62 0.62 0.63 0.54 0.68 0.56 0.54 0.57 0.50 0.54 0.51 0.48 0.66 0.66 0.68 0.66 0.69 0.74 1.03 1.30 1.27 1.28 1.32 1.32 1.19 1.27 1.34 1.49 1.37 1.20 1.48 1.55 1.58 1.60 1.59 1.61 1.49 1.42 1.42 1.42 1.43 1.43 1.38
0.41 0.41 0.40 0.40 0.42 0.44 0.44 0.43 0.41 0.40 0.40 0.39 0.37 0.37 0.36 0.34 0.34 0.35 0.37 0.37 0.40 0.39 0.41 0.44 0.47 0.43 0.32 0.33 0.30 0.42 0.50 0.48 0.48 0.42 0.45 0.53 0.45 0.47 0.53 0.58 0.57 0.48 0.42 0.39 0.43 0.60 0.69 0.65 0.61 0.64 0.58 0.43 0.46 0.47 0.49 0.47 0.48 0.51 0.59 0.66 0.68 0.69 0.68 0.70 0.89 1.23 1.39 1.22 1.25 1.21 1.20 1.27 1.40 1.32 1.20 1.43 1.53 1.57 1.54 1.53 1.44 1.46 1.39 1.40 1.42 1.40 1.43 1.44
0.42 0.42 0.42 0.41 0.43 0.46 0.46 0.44 0.43 0.41 0.41 0.39 0.38 0.38 0.36 0.33 0.34 0.37 0.38 0.39 0.39 0.40 0.42 0.45 0.47 0.41 0.43 0.39 0.36 0.38 0.38 0.41 0.39 0.38 0.41 0.43 0.43 0.43 0.50 0.61 0.58 0.53 0.49 0.46 0.46 0.58 0.67 0.63 0.63 0.57 0.45 0.53 0.30 0.41 0.40 0.44 0.43 0.44 0.49 0.48 0.53 0.56 0.59 0.71 0.70 0.89 1.14 1.21 1.24 1.23 1.14 1.10 1.21 1.16 1.37 1.49 1.56 1.51 1.50 1.47 1.38 1.47 1.44 1.41 1.43 1.44 1.39 1.47
0.43 0.43 0.43 0.43 0.44 0.47 0.47 0.45 0.43 0.41 0.41 0.40 0.39 0.39 0.36 0.34 0.34 0.36 0.41 0.40 0.44 0.45 0.46 0.50 0.48 0.49 0.49 0.44 0.52 0.30 0.27 0.33 0.39 0.28 0.33 0.34 0.56 0.50 0.58 0.68 0.61 0.60 0.64 0.68 0.70 0.68 0.67 0.65 0.62 0.54 0.52 0.48 0.37 0.25 0.31 0.35 0.37 0.39 0.41 0.43 0.43 0.44 0.43 0.55 0.69 0.71 0.93 1.08 1.21 1.14 0.77 0.94 1.16 1.27 1.40 1.51 1.48 1.51 1.45 1.37 1.44 1.37 1.45 1.43 1.41 1.40 1.37 1.40
0.45 0.44 0.44 0.43 0.43 0.48 0.49 0.47 0.45 0.42 0.40 0.40 0.40 0.38 0.37 0.36 0.36 0.37 0.40 0.45 0.47 0.48 0.51 0.52 0.52 0.52 0.49 0.48 0.29 0.33 0.29 0.32 0.36 0.26 0.29 0.36 0.40 0.46 0.50 0.65 0.71 0.68 0.81 0.85 0.88 0.81 0.65 0.65 0.62 0.55 0.55 0.46 0.40 0.42 0.28 0.28 0.34 0.30 0.35 0.37 0.34 0.35 0.36 0.50 0.58 0.65 0.66 1.00 1.14 1.08 0.74 0.92 1.10 1.20 1.36 1.44 1.48 1.47 1.42 1.39 1.37 1.35 1.33 1.35 1.39 1.38 1.34 1.35
0.47 0.45 0.45 0.43 0.42 0.46 0.49 0.48 0.46 0.43 0.41 0.41 0.40 0.39 0.39 0.36 0.34 0.38 0.41 0.44 0.51 0.52 0.53 0.57 0.53 0.52 0.56 0.54 0.41 0.33 0.35 0.38 0.35 0.40 0.32 0.27 0.33 0.42 0.38 0.54 0.62 0.68 0.77 0.85 0.85 0.83 0.70 0.56 0.51 0.44 0.40 0.49 0.47 0.39 0.31 0.28 0.28 0.30 0.27 0.26 0.31 0.31 0.35 0.45 0.51 0.59 0.56 0.80 1.06 1.00 0.73 0.88 1.05 1.16 1.31 1.39 1.42 1.46 1.42 1.40 1.35 1.36 1.38 1.40 1.42 1.39 1.30 1.34
0.48 0.47 0.46 0.45 0.43 0.45 0.49 0.48 0.46 0.44 0.41 0.41 0.41 0.40 0.40 0.37 0.34 0.36 0.41 0.44 0.50 0.53 0.54 0.52 0.57 0.54 0.54 0.55 0.35 0.40 0.35 0.28 0.25 0.28 0.28 0.22 0.29 0.43 0.52 0.43 0.55 0.62 0.69 0.74 0.84 0.80 0.75 0.61 0.43 0.42 0.41 0.44 0.37 0.32 0.28 0.24 0.20 0.24 0.23 0.23 0.27 0.30 0.32 0.37 0.44 0.51 0.64 0.72 0.93 0.91 0.78 0.87 0.93 1.13 1.22 1.37 1.37 1.39 1.39 1.32 1.37 1.45 1.41 1.40 1.43 1.40 1.29 1.37
0.50 0.49 0.48 0.47 0.45 0.45 0.48 0.48 0.47 0.44 0.42 0.42 0.42 0.40 0.41 0.40 0.36 0.37 0.40 0.47 0.51 0.59 0.49 0.42 0.56 0.65 0.45 0.33 0.33 0.28 0.22 0.25 0.27 0.29 0.28 0.26 0.28 0.39 0.58 0.48 0.44 0.49 0.60 0.69 0.69 0.69 0.66 0.53 0.51 0.43 0.44 0.37 0.37 0.30 0.22 0.18 0.15 0.18 0.21 0.20 0.26 0.28 0.32 0.31 0.41 0.48 0.61 0.69 0.73 0.91 0.82 0.91 1.00 1.10 1.17 1.30 1.40 1.37 1.34 1.38 1.36 1.44 1.49 1.40 1.42 1.42 1.30 1.30
0.53 0.51 0.49 0.48 0.46 0.45 0.47 0.48 0.47 0.45 0.43 0.43 0.42 0.40 0.41 0.43 0.42 0.41 0.39 0.44 0.53 0.59 0.65 0.56 0.51 0.45 0.39 0.39 0.24 0.22 0.22 0.23 0.22 0.27 0.28 0.32 0.28 0.32 0.50 0.47 0.45 0.45 0.51 0.51 0.59 0.51 0.55 0.44 0.46 0.36 0.37 0.33 0.33 0.28 0.18 0.10 0.12 0.15 0.19 0.18 0.20 0.26 0.31 0.33 0.34 0.46 0.60 0.72 0.72 0.87 0.90 0.91 1.02 1.12 1.13 1.21 1.36 1.38 1.33 1.33 1.36 1.49 1.41 1.47 1.47 1.44 1.34 1.30
0.55 0.53 0.51 0.49 0.47 0.46 0.46 0.48 0.47 0.45 0.45 0.45 0.44 0.46 0.51 0.52 0.53 0.56 0.36 0.42 0.43 0.55 0.54 0.40 0.32 0.33 0.17 0.23 0.26 0.25 0.22 0.20 0.26 0.28 0.30 0.29 0.26 0.30 0.45 0.51 0.51 0.45 0.40 0.36 0.43 0.41 0.50 0.45 0.45 0.36 0.30 0.28 0.22 0.24 0.20 0.15 0.15 0.16 0.19 0.20 0.20 0.21 0.27 0.27 0.35 0.48 0.64 0.71 0.72 0.78 0.80 0.88 1.03 1.01 1.11 1.23 1.31 1.26 1.30 1.39 1.38 1.43 1.44 1.47 1.45 1.46 1.38 1.30
0.55 0.53 0.52 0.50 0.47 0.45 0.45 0.47 0.47 0.46 0.47 0.44 0.41 0.41 0.42 0.41 0.37 0.47 0.40 0.37 0.34 0.33 0.23 0.24 0.22 0.20 0.19 0.24 0.25 0.25 0.22 0.23 0.23 0.26 0.32 0.34 0.26 0.28 0.41 0.43 0.44 0.45 0.39 0.29 0.39 0.36 0.48 0.35 0.31 0.27 0.27 0.27 0.26 0.24 0.24 0.23 0.19 0.18 0.18 0.17 0.18 0.20 0.24 0.31 0.36 0.43 0.54 0.62 0.67 0.73 0.79 0.85 1.04 1.12 1.11 1.19 1.24 1.22 1.27 1.35 1.37 1.38 1.41 1.45 1.45 1.40 1.45 1.36
0.53 0.52 0.51 0.49 0.47 0.44 0.44 0.46 0.47 0.47 0.48 0.47 0.43 0.38 0.23 0.21 0.20 0.25 0.28 0.25 0.27 0.23 0.19 0.21 0.20 0.16 0.17 0.19 0.18 0.15 0.18 0.23 0.21 0.26 0.34 0.35 0.32 0.38 0.40 0.33 0.36 0.29 0.34 0.36 0.35 0.44 0.40 0.32 0.30 0.31 0.29 0.26 0.27 0.27 0.24 0.24 0.26 0.22 0.20 0.18 0.18 0.19 0.20 0.27 0.33 0.39 0.47 0.55 0.63 0.72 0.78 0.83 0.95 1.12 1.17 1.20 1.19 1.13 1.22 1.29 1.36 1.35 1.36 1.40 1.46 1.42 1.44 1.46
0.54 0.53 0.51 0.49 0.47 0.44 0.43 0.45 0.46 0.48 0.48 0.48 0.45 0.34 0.31 0.29 0.29 0.32 0.26 0.16 0.25 0.22 0.19 0.17 0.19 0.18 0.20 0.18 0.17 0.15 0.14 0.20 0.23 0.28 0.30 0.30 0.40 0.33 0.41 0.28 0.30 0.26 0.30 0.33 0.34 0.36 0.30 0.25 0.29 0.31 0.30 0.28 0.26 0.27 0.27 0.23 0.22 0.22 0.21 0.20 0.18 0.21 0.25 0.26 0.28 0.38 0.43 0.43 0.47 0.65 0.69 0.78 0.85 1.03 1.13 1.11 1.14 1.19 1.26 1.34 1.37 1.33 1.31 1.37 1.47 1.43 1.40 1.48
0.54 0.54 0.52 0.51 0.48 0.46 0.45 0.47 0.46 0.50 0.47 0.43 0.38 0.35 0.33 0.36 0.39 0.38 0.32 0.24 0.18 0.23 0.22 0.18 0.17 0.17 0.17 0.17 0.17 0.15 0.14 0.16 0.22 0.28 0.31 0.31 0.40 0.39 0.43 0.30 0.29 0.29 0.30 0.30 0.25 0.29 0.26 0.27 0.29 0.33 0.30 0.27 0.26 0.25 0.27 0.27 0.23 0.21 0.20 0.17 0.15 0.19 0.22 0.23 0.25 0.33 0.38 0.39 0.43 0.53 0.60 0.68 0.79 0.99 1.06 1.11 1.19 1.21 1.26 1.30 1.34 1.33 1.34 1.39 1.44 1.43 1.41 1.59
0.54 0.55 0.53 0.52 0.51 0.46 0.48 0.51 0.52 0.50 0.47 0.44 0.42 0.37 0.41 0.43 0.41 0.37 0.27 0.20 0.19 0.26 0.22 0.22 0.22 0.21 0.17 0.15 0.19 0.15 0.13 0.19 0.22 0.25 0.27 0.25 0.27 0.39 0.41 0.43 0.33 0.29 0.26 0.29 0.26 0.27 0.29 0.33 0.36 0.32 0.32 0.28 0.26 0.27 0.26 0.26 0.25 0.23 0.19 0.18 0.16 0.15 0.18 0.22 0.28 0.31 0.35 0.39 0.43 0.48 0.58 0.60 0.69 0.74 0.90 1.06 1.16 1.21 1.25 1.28 1.33 1.33 1.40 1.47 1.59 1.50 1.52 1.52
0.55 0.55 0.55 0.55 0.53 0.51 0.48 0.56 0.50 0.49 0.43 0.44 0.43 0.44 0.44 0.44 0.42 0.41 0.26 0.19 0.22 0.20 0.25 0.23 0.21 0.21 0.19 0.20 0.18 0.14 0.16 0.16 0.19 0.21 0.24 0.22 0.27 0.29 0.35 0.43 0.41 0.36 0.29 0.29 0.29 0.25 0.28 0.35 0.36 0.33 0.31 0.29 0.26 0.25 0.26 0.27 0.25 0.25 0.23 0.18 0.18 0.19 0.17 0.19 0.25 0.30 0.31 0.32 0.37 0.41 0.39 0.45 0.57 0.68 0.74 0.93 1.06 1.13 1.29 1.22 1.26 1.28 1.34 1.42 1.50 1.50 1.54 1.57
0.55 0.55 0.56 0.58 0.57 0.55 0.50 0.45 0.50 0.48 0.46 0.45 0.45 0.47 0.45 0.45 0.47 0.38 0.29 0.20 0.17 0.24 0.25 0.18 0.21 0.20 0.24 0.20 0.19 0.17 0.17 0.14 0.18 0.23 0.23 0.22 0.24 0.25 0.28 0.29 0.33 0.31 0.37 0.31 0.28 0.29 0.27 0.31 0.32 0.31 0.31 0.29 0.26 0.25 0.29 0.29 0.24 0.24 0.25 0.25 0.20 0.18 0.19 0.17 0.19 0.24 0.24 0.26 0.34 0.37 0.29 0.31 0.47 0.58 0.73 0.82 0.93 1.02 1.16 1.15 1.22 1.28 1.33 1.40 1.49 1.48 1.56 1.53
0.57 0.58 0.59 0.58 0.58 0.59 0.42 0.37 0.45 0.47 0.48 0.42 0.48 0.49 0.47 0.44 0.49 0.36 0.21 0.16 0.11 0.24 0.21 0.23 0.19 0.22 0.26 0.21 0.19 0.17 0.15 0.18 0.25 0.25 0.21 0.23 0.19 0.25 0.20 0.22 0.23 0.25 0.35 0.41 0.33 0.25 0.30 0.29 0.29 0.30 0.29 0.28 0.27 0.24 0.28 0.30 0.26 0.22 0.29 0.28 0.26 0.20 0.17 0.15 0.17 0.20 0.19 0.23 0.31 0.35 0.36 0.32 0.38 0.46 0.59 0.70 0.82 0.94 1.05 1.14 1.18 1.23 1.30 1.35 1.45 1.44 1.55 1.52
0.59 0.60 0.60 0.60 0.58 0.60 0.49 0.48 0.45 0.44 0.45 0.48 0.51 0.48 0.49 0.48 0.42 0.31 0.20 0.09 0.15 0.28 0.23 0.22 0.23 0.28 0.23 0.23 0.21 0.17 0.18 0.22 0.19 0.23 0.26 0.27 0.20 0.23 0.17 0.19 0.22 0.26 0.30 0.30 0.25 0.35 0.32 0.29 0.27 0.28 0.28 0.27 0.24 0.27 0.29 0.30 0.26 0.25 0.28 0.29 0.24 0.22 0.20 0.18 0.16 0.16 0.17 0.16 0.18 0.29 0.37 0.32 0.35 0.45 0.54 0.60 0.67 0.76 0.85 1.08 1.07 1.15 1.23 1.32 1.47 1.52 1.52 1.50
0.60 0.61 0.61 0.61 0.59 0.63 0.65 0.56 0.51 0.44 0.54 0.53 0.51 0.51 0.49 0.47 0.34 0.29 0.26 0.14 0.25 0.24 0.35 0.23 0.33 0.26 0.22 0.22 0.19 0.19 0.18 0.20 0.18 0.26 0.27 0.27 0.23 0.21 0.17 0.20 0.20 0.23 0.26 0.26 0.24 0.31 0.39 0.36 0.35 0.29 0.28 0.26 0.26 0.28 0.28 0.28 0.24 0.27 0.29 0.31 0.27 0.22 0.21 0.20 0.17 0.14 0.13 0.13 0.12 0.22 0.34 0.31 0.34 0.40 0.44 0.52 0.66 0.78 0.82 0.95 1.01 1.05 1.16 1.27 1.40 1.46 1.49 1.52
0.63 0.63 0.64 0.64 0.61 0.67 0.66 0.65 0.57 0.66 0.60 0.56 0.54 0.52 0.50 0.40 0.32 0.21 0.18 0.10 0.23 0.18 0.23 0.25 0.22 0.20 0.22 0.20 0.20 0.21 0.18 0.19 0.19 0.20 0.21 0.20 0.23 0.22 0.17 0.25 0.21 0.21 0.23 0.26 0.26 0.28 0.34 0.39 0.45 0.37 0.29 0.28 0.30 0.29 0.28 0.28 0.27 0.30 0.30 0.26 0.24 0.21 0.20 0.22 0.20 0.17 0.13 0.10 0.10 0.18 0.30 0.34 0.29 0.38 0.39 0.43 0.44 0.66 0.88 0.91 1.10 1.06 1.14 1.28 1.40 1.47 1.46 1.45
0.66 0.67 0.66 0.67 0.55 0.58 0.55 0.51 0.59 0.61 0.61 0.58 0.55 0.51 0.45 0.37 0.24 0.22 0.18 0.24 0.26 0.25 0.27 0.25 0.23 0.24 0.20 0.19 0.19 0.22 0.22 0.21 0.20 0.20 0.17 0.18 0.17 0.21 0.19 0.16 0.17 0.16 0.16 0.18 0.19 0.22 0.28 0.32 0.32 0.38 0.42 0.35 0.31 0.29 0.30 0.29 0.30 0.29 0.27 0.23 0.21 0.20 0.21 0.21 0.21 0.20 0.13 0.10 0.11 0.12 0.19 0.30 0.25 0.30 0.42 0.44 0.51 0.52 0.69 0.90 1.00 1.03 1.09 1.17 1.31 1.42 1.50 1.43
0.67 0.66 0.67 0.64 0.62 0.63 0.49 0.50 0.62 0.65 0.62 0.59 0.53 0.43 0.39 0.26 0.26 0.15 0.24 0.37 0.24 0.26 0.25 0.23 0.24 0.23 0.21 0.21 0.21 0.20 0.19 0.21 0.20 0.17 0.17 0.19 0.23 0.18 0.18 0.10 0.21 0.15 0.12 0.11 0.09 0.13 0.14 0.22 0.28 0.34 0.41 0.38 0.32 0.25 0.26 0.29 0.29 0.28 0.25 0.21 0.17 0.16 0.18 0.16 0.18 0.15 0.14 0.11 0.14 0.13 0.12 0.13 0.18 0.26 0.35 0.43 0.45 0.49 0.56 0.83 1.01 0.99 1.05 1.13 1.20 1.25 1.41 1.41
0.67 0.66 0.67 0.64 0.62 0.58 0.61 0.66 0.67 0.63 0.61 0.56 0.48 0.44 0.33 0.27 0.20 0.26 0.28 0.29 0.21 0.26 0.24 0.26 0.21 0.21 0.21 0.17 0.18 0.20 0.22 0.18 0.20 0.18 0.17 0.21 0.22 0.27 0.27 0.19 0.25 0.23 0.19 0.23 0.19 0.14 0.13 0.15 0.15 0.22 0.32 0.38 0.35 0.26 0.24 0.25 0.26 0.24 0.21 0.19 0.17 0.15 0.15 0.14 0.16 0.18 0.17 0.16 0.17 0.15 0.15 0.11 0.12 0.14 0.20 0.31 0.41 0.53 0.60 0.61 0.92 0.98 1.06 1.13 1.20 1.27 1.37 1.44
0.67 0.68 0.65 0.63 0.65 0.66 0.67 0.71 0.69 0.67 0.56 0.53 0.44 0.39 0.33 0.24 0.25 0.35 0.31 0.29 0.26 0.29 0.28 0.25 0.23 0.23 0.21 0.18 0.23 0.22 0.19 0.21 0.19 0.20 0.18 0.18 0.19 0.20 0.24 0.27 0.25 0.23 0.21 0.24 0.18 0.18 0.15 0.13 0.14 0.15 0.14 0.27 0.34 0.29 0.31 0.28 0.28 0.25 0.24 0.21 0.19 0.19 0.16 0.15 0.16 0.16 0.17 0.16 0.19 0.19 0.13 0.11 0.11 0.11 0.14 0.15 0.33 0.41 0.57 0.62 0.83 1.03 1.14 1.27 1.30 1.31 1.34 1.35
0.67 0.72 0.71 0.68 0.70 0.72 0.71 0.72 0.71 0.62 0.55 0.47 0.40 0.36 0.28 0.28 0.33 0.30 0.29 0.29 0.30 0.29 0.27 0.29 0.25 0.22 0.21 0.22 0.22 0.23 0.22 0.20 0.23 0.20 0.18 0.14 0.18 0.17 0.20 0.29 0.28 0.23 0.21 0.14 0.17 0.19 0.18 0.20 0.23 0.24 0.23 0.23 0.25 0.32 0.32 0.33 0.31 0.29 0.25 0.24 0.21 0.20 0.24 0.18 0.21 0.21 0.19 0.17 0.18 0.18 0.15 0.16 0.14 0.16 0.16 0.17 0.19 0.38 0.49 0.58 0.65 0.93 0.96 1.09 1.21 1.25 1.30 1.35
0.66 0.70 0.72 0.69 0.66 0.66 0.65 0.61 0.59 0.57 0.51 0.45 0.38 0.34 0.33 0.31 0.28 0.33 0.30 0.33 0.31 0.28 0.26 0.26 0.25 0.21 0.21 0.20 0.25 0.25 0.26 0.20 0.20 0.18 0.18 0.16 0.19 0.24 0.33 0.32 0.28 0.26 0.24 0.17 0.23 0.18 0.21 0.16 0.26 0.31 0.29 0.25 0.25 0.33 0.32 0.29 0.23 0.27 0.26 0.22 0.22 0.27 0.26 0.23 0.23 0.25 0.26 0.24 0.21 0.25 0.21 0.20 0.21 0.18 0.17 0.19 0.20 0.29 0.44 0.49 0.51 0.84 0.95 0.99 1.10 1.19 1.23 1.28
0.61 0.66 0.68 0.70 0.64 0.62 0.61 0.59 0.58 0.55 0.50 0.45 0.38 0.36 0.41 0.35 0.38 0.33 0.35 0.31 0.30 0.30 0.26 0.19 0.23 0.21 0.20 0.18 0.24 0.25 0.22 0.21 0.19 0.17 0.15 0.18 0.17 0.24 0.32 0.31 0.34 0.31 0.29 0.21 0.17 0.23 0.19 0.20 0.30 0.31 0.27 0.30 0.29 0.33 0.36 0.35 0.28 0.31 0.25 0.27 0.32 0.31 0.29 0.27 0.21 0.23 0.21 0.19 0.21 0.26 0.23 0.23 0.21 0.16 0.20 0.18 0.20 0.23 0.32 0.43 0.48 0.58 0.93 0.92 0.99 1.08 1.15 1.20
0.65 0.65 0.65 0.61 0.62 0.61 0.59 0.58 0.56 0.54 0.52 0.44 0.39 0.42 0.44 0.35 0.37 0.35 0.35 0.33 0.30 0.28 0.23 0.21 0.23 0.25 0.21 0.20 0.24 0.23 0.23 0.19 0.21 0.21 0.18 0.18 0.21 0.29 0.27 0.30 0.34 0.31 0.30 0.27 0.17 0.21 0.20 0.14 0.20 0.24 0.26 0.31 0.36 0.32 0.32 0.38 0.37 0.25 0.27 0.32 0.28 0.23 0.22 0.26 0.25 0.20 0.19 0.18 0.19 0.24 0.27 0.26 0.26 0.24 0.26 0.21 0.20 0.22 0.26 0.35 0.41 0.53 0.76 0.91 0.91 0.97 1.14 1.24
0.71 0.70 0.63 0.61 0.65 0.60 0.55 0.57 0.55 0.51 0.47 0.40 0.40 0.37 0.38 0.34 0.35 0.33 0.34 0.34 0.31 0.28 0.23 0.24 0.23 0.24 0.24 0.23 0.23 0.25 0.24 0.20 0.20 0.21 0.16 0.20 0.17 0.30 0.29 0.29 0.29 0.30 0.30 0.26 0.18 0.19 0.22 0.17 0.17 0.26 0.23 0.25 0.33 0.35 0.27 0.30 0.36 0.36 0.31 0.30 0.33 0.32 0.30 0.27 0.25 0.24 0.24 0.19 0.22 0.21 0.23 0.24 0.29 0.29 0.30 0.31 0.26 0.25 0.27 0.34 0.39 0.47 0.53 0.82 0.99 1.00 1.04 1.09
0.68 0.64 0.52 0.66 0.65 0.60 0.61 0.58 0.52 0.49 0.43 0.40 0.39 0.35 0.39 0.31 0.32 0.34 0.33 0.32 0.28 0.27 0.25 0.25 0.26 0.24 0.23 0.23 0.21 0.20 0.23 0.22 0.20 0.22 0.19 0.23 0.20 0.27 0.26 0.31 0.27 0.27 0.26 0.26 0.18 0.17 0.15 0.21 0.13 0.22 0.26 0.27 0.21 0.27 0.30 0.31 0.29 0.27 0.26 0.26 0.30 0.30 0.34 0.32 0.33 0.28 0.21 0.21 0.21 0.22 0.22 0.23 0.30 0.34 0.34 0.34 0.34 0.30 0.31 0.34 0.41 0.42 0.49 0.59 0.68 1.00 1.01 0.99
0.72 0.60 0.60 0.69 0.63 0.57 0.57 0.54 0.46 0.42 0.43 0.43 0.39 0.36 0.36 0.33 0.33 0.31 0.31 0.32 0.30 0.32 0.27 0.25 0.25 0.23 0.23 0.23 0.21 0.24 0.21 0.21 0.21 0.20 0.21 0.21 0.21 0.19 0.30 0.28 0.28 0.26 0.26 0.22 0.17 0.13 0.11 0.15 0.15 0.17 0.20 0.20 0.21 0.26 0.28 0.32 0.33 0.32 0.34 0.27 0.27 0.28 0.27 0.24 0.23 0.31 0.27 0.23 0.20 0.22 0.21 0.28 0.31 0.35 0.32 0.32 0.38 0.36 0.34 0.35 0.37 0.43 0.46 0.55 0.61 0.80 0.97 0.95
0.59 0.48 0.50 0.63 0.60 0.59 0.55 0.44 0.41 0.42 0.41 0.37 0.33 0.34 0.33 0.35 0.32 0.27 0.27 0.29 0.29 0.28 0.28 0.25 0.25 0.23 0.22 0.23 0.23 0.20 0.24 0.22 0.22 0.21 0.20 0.20 0.24 0.25 0.28 0.33 0.29 0.27 0.23 0.20 0.18 0.23 0.26 0.25 0.19 0.14 0.15 0.17 0.19 0.23 0.24 0.25 0.28 0.29 0.34 0.34 0.31 0.31 0.31 0.27 0.24 0.27 0.29 0.27 0.27 0.25 0.25 0.26 0.38 0.43 0.41 0.38 0.39 0.42 0.41 0.41 0.39 0.42 0.46 0.51 0.59 0.66 0.79 0.85
0.54 0.46 0.59 0.58 0.58 0.58 0.52 0.43 0.35 0.40 0.35 0.37 0.43 0.36 0.34 0.32 0.28 0.32 0.29 0.30 0.25 0.28 0.27 0.25 0.26 0.25 0.26 0.25 0.26 0.24 0.25 0.21 0.23 0.23 0.23 0.24 0.27 0.30 0.33 0.31 0.32 0.28 0.25 0.22 0.21 0.31 0.25 0.19 0.15 0.14 0.16 0.19 0.23 0.24 0.27 0.27 0.27 0.28 0.29 0.35 0.35 0.30 0.32 0.31 0.30 0.35 0.31 0.28 0.25 0.24 0.21 0.25 0.36 0.44 0.45 0.40 0.41 0.40 0.37 0.41 0.42 0.42 0.42 0.46 0.54 0.62 0.68 0.84
0.56 0.57 0.55 0.56 0.62 0.57 0.49 0.36 0.37 0.36 0.32 0.35 0.35 0.34 0.33 0.31 0.31 0.30 0.33 0.30 0.28 0.27 0.26 0.27 0.28 0.29 0.26 0.29 0.26 0.24 0.25 0.20 0.25 0.24 0.24 0.26 0.25 0.32 0.33 0.31 0.33 0.29 0.26 0.29 0.24 0.30 0.18 0.21 0.18 0.15 0.16 0.16 0.14 0.18 0.23 0.26 0.25 0.26 0.28 0.30 0.34 0.35 0.34 0.36 0.39 0.41 0.35 0.34 0.30 0.26 0.21 0.25 0.30 0.40 0.48 0.40 0.41 0.39 0.36 0.34 0.39 0.41 0.41 0.40 0.42 0.54 0.66 0.75
0.62 0.67 0.59 0.51 0.50 0.49 0.41 0.38 0.37 0.36 0.35 0.35 0.35 0.30 0.31 0.34 0.35 0.32 0.31 0.31 0.30 0.31 0.25 0.27 0.29 0.29 0.27 0.28 0.26 0.23 0.26 0.25 0.22 0.25 0.25 0.26 0.27 0.30 0.31 0.32 0.33 0.30 0.30 0.36 0.34 0.32 0.25 0.23 0.24 0.17 0.12 0.10 0.11 0.10 0.11 0.18 0.24 0.26 0.27 0.29 0.32 0.35 0.35 0.34 0.30 0.33 0.30 0.34 0.37 0.36 0.29 0.30 0.33 0.37 0.45 0.45 0.44 0.42 0.37 0.37 0.41 0.40 0.40 0.39 0.38 0.41 0.50 0.63
0.51 0.42 0.48 0.51 0.49 0.48 0.46 0.44 0.41 0.37 0.35 0.33 0.32 0.31 0.32 0.33 0.32 0.31 0.29 0.29 0.33 0.32 0.30 0.27 0.28 0.27 0.26 0.26 0.24 0.26 0.27 0.28 0.25 0.26 0.27 0.27 0.28 0.30 0.32 0.33 0.33 0.33 0.32 0.33 0.34 0.31 0.24 0.25 0.25 0.24 0.22 0.20 0.19 0.30 0.37 0.34 0.31 0.26 0.31 0.34 0.38 0.44 0.45 0.42 0.38 0.33 0.31 0.34 0.33 0.34 0.40 0.44 0.43 0.38 0.39 0.43 0.41 0.37 0.36 0.38 0.36 0.36 0.36 0.37 0.38 0.38 0.38 0.52
0.57 0.44 0.41 0.44 0.51 0.45 0.43 0.41 0.39 0.40 0.37 0.36 0.35 0.34 0.29 0.31 0.32 0.33 0.33 0.28 0.35 0.30 0.27 0.30 0.30 0.24 0.29 0.27 0.26 0.27 0.29 0.29 0.32 0.30 0.29 0.29 0.31 0.32 0.36 0.36 0.34 0.34 0.37 0.34 0.32 0.29 0.25 0.21 0.20 0.23 0.23 0.23 0.23 0.26 0.31 0.31 0.27 0.29 0.28 0.27 0.29 0.33 0.39 0.39 0.37 0.35 0.42 0.39 0.33 0.38 0.43 0.43 0.43 0.50 0.60 0.56 0.44 0.43 0.44 0.43 0.40 0.40 0.39 0.37 0.40 0.48 0.43 0.42
0.43 0.42 0.49 0.53 0.45 0.36 0.42 0.36 0.41 0.39 0.38 0.38 0.33 0.35 0.31 0.30 0.30 0.29 0.32 0.35 0.31 0.30 0.25 0.33 0.29 0.30 0.28 0.26 0.28 0.24 0.29 0.31 0.32 0.28 0.30 0.30 0.30 0.32 0.32 0.36 0.35 0.38 0.38 0.35 0.35 0.26 0.22 0.19 0.20 0.20 0.19 0.20 0.20 0.21 0.24 0.26 0.27 0.27 0.28 0.28 0.27 0.32 0.39 0.38 0.38 0.40 0.43 0.40 0.36 0.41 0.48 0.45 0.47 0.53 0.63 0.67 0.81 0.69 0.57 0.53 0.49 0.41 0.47 0.44 0.49 0.46 0.48 0.49
0.54 0.50 0.51 0.54 0.44 0.43 0.40 0.40 0.41 0.39 0.38 0.39 0.32 0.33 0.32 0.29 0.29 0.30 0.27 0.29 0.30 0.31 0.32 0.24 0.27 0.30 0.31 0.33 0.32 0.27 0.25 0.20 0.22 0.29 0.31 0.31 0.30 0.30 0.27 0.32 0.37 0.41 0.42 0.37 0.35 0.32 0.26 0.21 0.22 0.23 0.21 0.21 0.21 0.20 0.20 0.20 0.25 0.26 0.25 0.26 0.26 0.27 0.33 0.38 0.38 0.40 0.42 0.41 0.42 0.43 0.46 0.51 0.56 0.58 0.65 0.75 0.85 0.77 0.69 0.79 0.83 0.93 0.66 0.68 0.61 0.80 0.75 0.73
0.48 0.51 0.43 0.50 0.48 0.45 0.44 0.42 0.40 0.40 0.36 0.37 0.36 0.31 0.35 0.31 0.32 0.33 0.34 0.31 0.27 0.32 0.34 0.26 0.29 0.37 0.36 0.34 0.31 0.24 0.28 0.29 0.26 0.23 0.28 0.28 0.27 0.29 0.28 0.30 0.32 0.36 0.34 0.35 0.36 0.36 0.30 0.23 0.24 0.23 0.21 0.20 0.22 0.22 0.22 0.21 0.20 0.23 0.24 0.23 0.24 0.25 0.29 0.35 0.38 0.40 0.42 0.42 0.45 0.44 0.43 0.45 0.57 0.68 0.76 0.79 0.86 0.80 0.86 0.91 0.80 0.89 0.92 1.01 1.06 0.94 0.94 1.06
0.60 0.65 0.65 0.53 0.45 0.44 0.47 0.43 0.41 0.39 0.35 0.36 0.38 0.35 0.36 0.35 0.33 0.35 0.33 0.36 0.32 0.31 0.33 0.30 0.31 0.31 0.36 0.36 0.34 0.31 0.35 0.34 0.34 0.33 0.34 0.32 0.27 0.34 0.29 0.28 0.33 0.32 0.37 0.35 0.35 0.37 0.34 0.27 0.29 0.26 0.21 0.20 0.21 0.19 0.19 0.20 0.19 0.17 0.19 0.22 0.22 0.22 0.23 0.27 0.33 0.39 0.39 0.41 0.44 0.43 0.41 0.42 0.56 0.65 0.73 0.74 0.75 0.86 0.89 0.87 0.91 1.00 1.00 1.04 1.11 0.94 1.03 1.09
0.68 0.69 0.69 0.60 0.42 0.45 0.47 0.43 0.41 0.42 0.34 0.36 0.38 0.38 0.36 0.37 0.37 0.38 0.34 0.44 0.32 0.35 0.35 0.33 0.31 0.29 0.33 0.35 0.35 0.38 0.40 0.38 0.36 0.35 0.34 0.33 0.33 0.31 0.32 0.31 0.31 0.31 0.33 0.32 0.37 0.32 0.35 0.33 0.27 0.25 0.21 0.19 0.22 0.22 0.20 0.19 0.18 0.15 0.15 0.19 0.22 0.23 0.23 0.25 0.29 0.37 0.43 0.45 0.42 0.41 0.42 0.50 0.57 0.66 0.71 0.82 0.87 0.90 0.97 0.97 0.93 0.96 1.02 1.13 1.13 1.06 1.04 1.08
Wind_Speed
16 16 16 16 15 15 15 15 14 14 14 14 14 14 14 14 14 14 14 13 13 13 12 12 11 10 10 10 10 11 11 12 12 12 13 12 11 11 10 11 12 13 13 13 13 14 15 16 17 17 16 15 13 13 12 13 12 9 8 7 6 5 5 4 3 4 4 5 6 6 6 7 6 6 7 7 8 9 9 7 6 6 7 9 11 14 16 16
17 17 17 16 16 16 15 15 15 15 14 14 14 14 14 14 14 14 14 14 14 13 13 13 13 12 12 11 11 11 11 12 13 14 14 13 12 12 12 12 13 14 14 14 14 15 15 15 16 16 15 14 14 13 13 13 13 12 10 9 7 6 5 5 5 6 5 6 8 7 8 8 5 6 7 6 8 9 8 8 8 7 9 11 12 14 15 16
17 17 17 17 17 16 16 16 15 15 15 15 15 14 15 14 15 15 15 14 14 14 14 14 13 13 13 12 12 11 11 12 14 14 13 12 13 13 13 13 13 14 16 15 15 16 15 15 15 15 14 14 14 14 14 13 13 13 11 10 9 7 5 5 6 6 6 6 8 8 8 7 5 5 5 6 8 8 6 7 8 8 11 12 13 13 15 16
17 17 17 17 17 16 16 16 16 15 15 15 15 15 15 15 15 15 15 15 14 14 14 14 14 14 13 13 12 12 12 13 13 11 11 12 13 14 14 14 14 15 16 17 16 16 15 15 14 14 14 13 14 15 15 14 13 12 12 11 9 8 6 6 6 6 7 6 8 8 7 6 6 5 5 5 6 5 5 5 7 10 12 12 13 14 14 15
18 17 17 17 17 16 16 16 16 15 15 15 16 16 16 16 15 15 15 15 15 15 14 14 14 14 13 13 12 12 12 11 10 9 10 12 12 13 15 14 14 15 17 17 17 17 16 16 15 15 14 13 14 14 15 15 14 12 13 12 9 9 8 7 6 7 9 7 7 8 7 8 6 4 4 4 5 6 5 4 6 10 12 12 13 14 14 15
18 18 18 18 17 17 16 16 16 16 16 15 16 16 16 16 16 16 15 15 15 15 14 14 13 13 13 13 13 13 13 11 9 9 11 12 12 13 14 14 15 16 17 18 18 17 17 17 16 16 15 14 14 14 14 15 15 14 13 13 11 11 10 9 8 9 10 6 5 7 8 8 5 4 4 5 6 7 5 4 7 11 12 11 12 13 14 15
18 18 18 18 18 17 17 17 16 16 16 16 16 16 16 16 16 16 15 15 15 15 15 14 13 13 13 13 13 13 15 14 11 10 10 11 12 13 14 14 15 16 17 18 18 18 18 18 18 17 16 14 14 14 14 14 15 15 14 14 12 11 11 10 10 10 10 7 5 6 8 7 5 6 6 5 5 6 7 6 7 11 12 11 12 13 14 15
19 19 19 18 18 18 17 17 17 16 16 16 16 16 17 16 16 16 15 15 15 15 14 14 13 13 13 13 13 14 15 14 12 11 11 12 12 13 14 15 16 17 18 18 18 18 18 19 19 17 16 15 15 15 14 14 14 15 15 15 13 12 11 11 12 11 10 9 9 9 8 7 7 8 6 5 5 6 9 8 8 10 12 12 12 13 14 15
19 19 19 19 19 18 18 17 17 17 16 16 17 17 17 16 16 16 15 15 15 15 14 14 14 14 14 13 13 14 13 13 12 12 12 13 13 13 14 15 17 18 18 18 18 18 18 18 19 18 17 16 16 15 15 14 13 14 15 15 15 13 13 13 13 13 12 10 10 10 8 6 7 7 7 6 5 6 8 9 11 12 12 12 12 13 14 15
20 20 20 20 19 19 18 18 17 17 17 17 17 17 17 16 16 16 15 15 14 14 14 14 14 14 14 13 14 13 12 13 14 13 13 14 14 14 15 16 17 19 18 18 18 19 18 18 18 18 18 17 16 15 15 15 13 13 13 13 15 15 14 14 13 13 14 12 10 9 7 7 8 8 6 7 6 7 8 9 12 12 12 13 13 13 14 15
20 20 20 20 20 19 19 18 18 18 17 17 17 17 17 17 16 16 15 15 15 14 14 15 15 15 14 14 15 13 12 14 14 14 14 14 15 15 16 16 17 19 19 19 19 19 19 19 18 17 17 17 17 16 16 16 16 15 14 12 14 15 15 16 14 13 13 12 12 10 8 8 10 9 7 9 9 9 10 10 11 12 12 13 13 13 13 15
21 21 21 21 21 20 19 19 19 19 18 18 18 17 17 17 16 16 15 15 15 15 15 15 15 15 15 16 17 14 13 14 14 15 15 15 16 16 17 17 18 19 19 19 19 19 19 19 19 18 17 16 16 16 15 15 17 17 16 15 14 14 15 17 16 15 14 13 12 11 9 9 10 9 10 11 10 11 11 10 11 12 12 12 13 13 13 15
22 22 22 22 21 21 20 20 20 19 19 19 19 18 17 17 17 16 15 15 15 15 15 15 15 15 15 16 16 14 14 15 14 15 15 16 16 17 18 18 18 20 20 19 18 18 20 20 20 20 19 17 16 16 14 14 16 17 17 16 15 14 15 16 17 17 16 14 13 12 11 11 11 11 12 12 11 11 11 11 12 12 12 12 12 13 14 15
22 22 22 22 22 21 21 21 20 20 20 19 19 18 18 18 17 16 16 15 14 14 14 15 15 15 16 16 14 14 15 15 15 16 16 16 16 17 18 18 19 20 21 20 18 18 19 20 20 20 20 19 18 18 16 15 16 16 17 17 16 15 14 14 16 17 17 15 15 14 12 12 12 12 12 13 12 12 12 12 13 13 12 12 13 13 14 15
22 22 22 22 22 22 21 21 21 20 20 19 19 18 18 18 17 16 16 15 15 15 14 15 15 15 16 16 15 14 14 15 15 15 15 16 17 18 18 19 19 20 21 21 19 18 18 20 20 20 20 20 19 19 18 16 16 17 17 16 16 16 15 15 15 17 17 15 16 15 13 11 12 13 13 13 14 13 13 13 13 13 13 13 13 14 14 15
23 22 22 22 22 22 22 22 22 21 20 19 19 19 18 18 17 16 16 16 15 15 15 15 15 15 15 14 14 14 14 14 14 15 16 17 18 17 18 19 19 20 21 21 20 19 18 19 20 20 20 19 19 18 17 17 17 17 18 17 16 16 15 15 15 17 17 16 16 17 14 11 11 13 14 14 14 14 14 14 13 13 14 14 14 14 14 15
23 23 23 23 22 22 22 22 22 21 21 20 19 19 19 18 17 16 16 16 16 16 16 16 16 16 16 15 15 15 14 13 14 15 16 17 18 17 17 19 19 20 21 21 21 20 20 19 19 19 20 19 18 18 18 18 17 16 17 17 17 17 16 15 15 16 18 16 15 17 16 12 11 13 14 15 15 15 15 15 14 13 13 13 14 15 15 16
24 23 23 23 23 23 22 22 22 21 21 20 19 19 19 18 17 17 16 16 15 15 16 17 16 16 16 16 16 16 15 14 14 15 15 16 18 18 18 19 19 20 21 21 21 21 20 20 19 19 19 19 19 19 19 18 17 16 16 16 17 18 18 17 14 14 16 16 15 16 17 15 13 13 15 16 16 16 16 16 16 14 14 14 14 15 15 16
24 24 23 23 23 22 22 22 21 21 20 19 19 19 17 17 17 16 16 15 15 15 14 15 16 16 15 15 15 16 16 15 15 16 16 16 17 18 19 19 19 20 20 19 20 22 20 20 20 20 20 20 20 21 20 19 18 18 17 17 17 18 18 18 16 14 16 16 15 16 16 16 15 13 15 17 17 17 16 17 16 14 15 15 14 14 15 16
25 24 24 23 23 22 22 21 21 20 19 18 17 17 16 15 15 14 14 16 18 17 16 15 16 17 16 16 16 17 17 17 17 16 16 16 17 18 19 19 20 21 21 20 20 21 21 21 22 22 21 21 22 22 22 21 20 20 19 18 18 18 18 19 18 17 16 16 16 17 17 16 15 14 16 16 17 17 17 17 17 15 16 16 16 14 14 16
25 24 23 23 22 22 22 21 20 20 19 18 18 17 14 14 14 14 15 17 18 18 17 17 16 17 16 16 17 16 17 17 16 15 15 16 17 18 18 20 20 21 21 22 20 21 22 23 23 23 23 23 23 22 23 23 22 21 20 19 18 17 17 18 19 18 18 17 16 16 17 17 16 16 17 17 17 18 18 18 17 17 16 16 17 17 15 16
24 24 23 23 22 22 22 21 20 19 19 18 17 15 13 14 15 16 16 18 18 18 18 17 17 17 16 16 16 16 16 16 17 16 15 16 17 18 18 20 21 21 21 23 22 21 23 24 24 23 23 24 24 23 23 24 23 22 21 19 18 17 16 17 19 19 18 17 16 16 16 16 17 18 18 18 18 18 19 19 17 17 17 16 18 18 17 17
24 24 23 23 22 22 22 21 20 19 17 17 16 14 14 15 15 16 17 17 18 18 18 18 17 17 16 15 15 16 17 16 16 15 15 17 17 18 19 20 21 21 22 23 23 23 22 23 24 24 23 24 25 24 23 23 23 22 21 20 19 18 18 16 16 19 19 18 18 17 16 16 17 18 18 18 18 19 21 20 18 18 19 18 18 18 19 19
24 23 23 23 23 22 21 21 20 18 16 17 16 13 14 16 16 16 17 17 18 18 17 17 17 16 16 15 15 16 16 16 16 14 15 17 17 18 20 21 21 21 22 23 25 25 23 21 22 24 25 25 25 24 24 22 21 23 24 22 20 19 20 18 16 17 19 20 20 19 17 16 17 19 19 18 18 19 20 20 18 18 20 19 19 19 20 20
24 23 23 23 23 22 22 20 17 17 16 17 15 14 15 16 15 16 16 17 17 17 16 16 16 16 15 16 16 16 16 17 18 16 15 17 17 18 19 20 21 21 22 24 25 25 25 22 21 22 25 26 26 24 24 23 21 21 23 24 23 21 21 21 19 17 17 19 20 20 19 17 16 19 19 18 19 19 18 19 18 18 20 20 20 20 20 21
24 23 23 23 23 22 21 17 16 17 17 15 15 15 15 15 15 16 15 16 16 15 15 15 15 14 14 15 15 16 16 16 17 16 17 18 18 18 19 19 20 21 21 22 23 23 24 24 23 23 23 25 27 25 25 24 23 21 21 22 24 24 23 23 22 19 17 17 18 20 20 18 17 18 18 18 20 20 19 20 19 19 20 21 21 21 20 21
23 23 23 23 22 21 18 16 17 18 16 14 15 16 15 15 15 15 14 15 15 15 15 14 13 13 13 13 14 15 14 14 16 17 16 17 17 18 19 20 19 20 21 20 22 22 23 25 25 25 24 24 25 25 25 25 23 22 21 20 21 23 25 25 24 22 20 19 19 20 20 19 19 18 19 20 22 22 21 21 20 19 20 21 22 22 22 22
23 23 22 22 21 19 17 17 17 17 15 15 16 15 15 14 14 13 14 13 13 14 14 13 13 14 15 14 16 17 16 15 17 17 16 16 17 18 19 20 20 20 21 21 22 21 21 24 26 26 26 24 23 24 25 25 25 23 22 22 20 20 22 23 24 24 22 21 21 21 20 19 18 18 19 20 22 23 23 22 21 19 20 23 23 24 24 23
24 23 22 21 20 18 16 16 16 16 15 15 15 14 14 14 13 13 13 13 12 13 13 13 14 15 16 16 17 17 17 17 17 16 16 18 18 18 19 20 20 21 22 23 24 23 21 22 24 26 27 25 24 24 24 25 25 24 24 24 22 20 20 21 22 23 24 24 24 23 20 18 17 17 18 19 20 21 22 22 21 20 22 24 25 25 24 23
24 23 22 21 19 16 15 15 14 14 14 14 13 13 13 12 12 12 13 12 11 12 13 13 13 13 14 16 16 16 16 17 18 17 17 18 19 19 19 20 21 21 22 23 24 25 24 22 22 25 26 26 25 25 25 26 25 23 23 24 24 22 21 20 20 20 23 25 26 26 24 21 18 17 17 18 19 20 21 22 21 21 23 24 25 26 24 23
24 23 21 20 17 15 15 14 12 12 13 13 12 11 11 10 10 11 11 9 10 11 12 12 12 13 14 15 15 15 15 16 17 18 18 18 19 20 20 20 20 20 22 23 24 25 27 26 23 22 24 26 27 26 26 26 25 23 22 23 23 23 22 21 21 21 22 24 25 27 27 26 23 21 18 17 18 20 20 21 22 22 24 25 25 25 24 24
23 22 21 18 16 14 14 13 12 12 11 11 10 9 9 9 10 11 10 9 10 10 10 10 10 11 12 13 14 14 13 14 15 16 17 17 17 18 19 19 18 19 20 21 22 23 26 27 26 24 23 25 27 26 25 26 25 25 24 24 23 23 22 22 22 22 23 24 23 24 26 27 27 25 23 20 18 18 19 21 23 23 25 26 25 25 23 24
23 21 20 16 14 13 12 13 12 11 10 9 9 8 8 9 9 9 9 8 7 8 9 9 9 10 10 11 13 12 12 13 13 14 15 17 17 16 17 18 17 18 18 17 19 21 22 26 28 28 25 25 27 26 25 25 26 26 26 26 25 23 22 22 22 22 23 24 24 25 25 26 26 26 28 27 22 18 18 21 24 25 25 25 25 25 24 25
23 20 17 13 12 12 12 11 10 9 9 8 8 8 8 9 7 7 6 4 5 7 8 9 11 12 13 12 11 11 13 13 13 14 14 15 17 16 17 18 17 19 20 18 18 19 20 20 24 27 27 27 29 28 26 24 25 27 27 26 26 25 23 22 21 21 22 22 24 26 26 25 24 23 25 29 28 22 18 19 23 25 25 24 24 25 26 26
22 18 14 12 12 12 11 10 9 8 7 7 7 7 8 7 6 5 5 3 5 6 7 9 12 13 13 13 12 12 13 13 12 14 15 15 16 14 14 14 14 16 19 19 18 19 21 19 17 21 25 27 29 30 28 26 25 25 27 28 28 27 25 24 23 22 22 21 22 24 25 25 24 22 22 25 28 27 22 19 20 24 26 25 24 25 25 26
19 16 13 12 11 10 9 8 7 6 6 6 6 6 6 5 5 5 6 6 6 7 8 10 11 11 11 12 12 12 12 14 14 13 13 16 16 12 11 13 13 14 16 18 17 16 19 20 17 16 21 25 27 28 29 29 26 23 25 29 28 27 26 25 25 25 24 22 21 21 23 23 22 23 24 24 26 28 26 23 21 22 26 27 25 24 25 25
17 15 12 10 9 9 7 6 5 5 5 5 6 6 6 5 6 6 7 9 9 8 10 10 8 9 10 8 8 8 8 11 13 13 12 14 15 13 12 13 14 14 14 16 18 17 17 20 20 18 19 20 23 26 28 30 29 25 24 25 25 27 27 26 24 24 24 24 21 21 22 21 20 20 22 25 27 28 28 27 24 23 25 28 26 25 25 24
16 14 10 8 8 7 5 3 4 4 5 5 6 7 7 5 6 7 8 9 10 9 9 9 7 8 10 7 5 5 7 8 8 11 13 13 13 13 14 14 14 15 15 16 18 19 19 20 21 20 20 18 19 23 25 27 32 32 27 23 22 24 26 26 25 24 24 24 22 22 23 22 20 18 19 23 26 27 27 28 28 25 23 25 26 26 25 23
14 12 8 7 8 6 3 2 3 4 4 5 5 5 6 5 5 6 7 8 8 8 9 9 8 8 9 10 8 7 9 9 8 9 11 11 11 13 14 17 17 16 16 17 18 19 20 21 21 21 21 19 19 22 23 24 27 31 31 29 26 23 23 25 27 26 25 24 22 22 22 22 21 18 18 20 23 25 26 26 28 28 25 24 24 25 25 24
13 10 7 7 8 4 1 1 2 3 4 5 5 4 3 3 3 5 5 6 6 7 7 7 7 7 7 10 11 10 10 11 11 12 11 11 12 13 12 15 18 18 18 19 20 20 21 22 23 23 21 21 21 22 23 23 24 26 29 30 29 26 23 23 25 27 28 25 22 20 20 21 21 19 19 19 19 23 24 24 25 27 28 28 26 25 26 25
12 9 6 8 7 2 1 3 3 3 4 4 4 3 2 3 5 6 4 4 5 5 6 8 8 8 8 10 10 10 10 13 14 13 13 13 13 14 13 12 15 17 17 19 20 19 20 22 24 24 23 23 23 22 23 24 24 25 27 28 29 27 25 24 23 25 28 27 26 23 20 19 18 18 20 21 19 21 24 25 25 26 28 29 27 27 28 27
10 8 8 7 3 1 3 3 2 2 3 2 2 3 4 5 6 6 4 3 4 4 5 7 8 8 9 10 11 11 10 13 14 13 13 14 12 12 13 13 14 15 16 18 20 18 20 22 24 26 26 26 26 25 25 25 25 26 28 28 27 26 26 25 23 23 26 28 28 26 24 21 17 13 16 20 21 21 22 24 25 26 27 29 29 28 29 28
9 7 7 4 1 2 4 3 2 2 3 2 3 4 4 4 5 6 5 4 5 5 5 6 7 8 8 9 11 12 11 13 16 15 16 16 13 11 13 13 14 16 16 16 18 18 20 22 24 26 26 27 29 28 28 28 27 26 28 29 28 27 26 25 24 24 25 27 27 26 25 25 21 14 12 15 18 19 20 22 23 25 26 28 29 28 29 29
9 7 5 2 2 4 3 3 3 2 3 2 2 3 2 3 5 6 6 6 5 6 7 7 7 8 9 10 12 13 14 14 16 16 17 18 17 15 16 16 15 17 17 16 17 18 20 21 22 24 23 24 26 27 27 28 28 27 28 29 29 30 30 27 25 25 25 27 27 24 24 26 25 19 13 12 16 18 19 19 19 22 25 26 27 28 28 29
9 6 4 3 4 3 2 4 4 2 2 2 2 3 2 3 5 5 6 8 6 7 8 7 9 10 11 13 13 14 15 15 16 17 18 19 19 19 19 19 18 18 18 18 19 20 21 22 23 23 23 22 22 21 21 23 25 25 27 28 28 30 32 29 26 26 27 28 28 25 23 23 24 23 19 16 17 17 17 16 17 19 22 23 25 26 27 27
7 5 4 3 4 3 2 4 5 3 2 2 2 4 4 4 4 3 6 8 7 8 10 9 10 11 11 12 13 14 15 16 17 18 19 20 20 21 21 21 21 22 21 21 22 23 23 24 26 26 26 25 23 20 19 21 23 25 27 29 28 28 29 27 26 27 28 28 29 28 24 22 22 22 20 21 21 20 16 15 14 15 18 21 20 22 25 26
7 5 4 3 3 3 3 4 5 4 3 2 2 4 5 5 5 4 5 7 8 9 9 9 9 10 11 12 13 14 15 16 17 19 20 21 21 23 24 24 24 24 24 23 23 24 25 27 28 29 30 31 30 27 25 25 26 28 29 30 30 28 29 28 27 27 25 25 27 27 24 24 24 19 15 16 19 21 20 18 16 13 15 18 17 17 23 25
6 5 4 3 3 4 4 4 5 4 4 4 4 4 5 5 6 6 5 7 9 9 8 8 9 10 11 11 12 13 14 15 17 18 19 20 21 22 23 24 24 24 24 23 22 23 25 27 29 30 31 32 32 32 30 29 28 29 30 32 31 30 31 31 30 30 28 25 27 27 23 24 26 22 17 13 13 15 17 17 17 14 13 16 13 13 19 21
7 4 3 3 3 3 4 4 4 4 4 5 5 4 5 5 5 6 7 8 8 8 9 9 9 10 11 11 12 13 14 14 16 16 17 18 19 20 21 22 22 22 22 23 22 22 24 26 28 30 31 32 32 32 32 31 30 30 31 32 32 33 33 33 33 34 33 30 30 31 28 26 25 22 20 16 13 14 14 12 12 11 12 13 10 11 14 15
7 5 3 3 3 3 3 3 4 3 4 4 5 6 6 6 6 7 8 9 9 9 10 10 10 10 11 11 12 13 13 13 14 14 14 15 16 17 18 18 19 20 22 22 21 22 24 25 26 27 29 31 32 32 32 32 33 33 33 32 33 33 34 35 34 34 35 33 31 31 31 30 27 23 21 19 17 16 15 13 13 13 13 12 12 13 15 15
7 5 4 4 4 3 3 3 4 4 4 5 6 7 7 7 7 9 9 9 10 10 10 10 10 10 11 11 11 12 12 12 12 12 13 13 14 14 14 15 15 17 18 19 19 21 22 24 25 26 28 29 30 31 32 32 33 36 36 35 34 34 34 35 35 34 34 34 33 32 31 30 28 25 23 22 20 17 16 16 16 14 15 14 14 16 17 16
7 5 5 5 4 3 3 3 4 5 5 6 7 7 7 7 8 9 10 9 9 9 9 9 9 9 10 11 10 11 11 12 13 13 14 14 14 14 14 15 16 16 16 16 17 18 20 21 23 25 27 29 29 30 31 31 32 34 35 35 35 35 35 35 36 37 36 34 34 32 30 29 27 24 22 22 21 19 18 19 18 16 17 18 16 16 17 16
Wind_Direction
321 319 318 317 315 312 309 306 304 303 301 300 298 296 294 291 288 286 285 284 283 282 281 279 275 271 268 267 264 260 257 252 247 239 235 235 230 227 226 220 220 221 217 213 213 212 211 214 217 219 221 224 229 231 231 232 231 231 239 248 265 280 278 276 268 256 238 212 202 179 188 197 169 165 167 160 159 161 165 160 154 150 147 148 147 152 155 155
320 319 318 317 314 312 308 305 303 301 299 298 297 295 294 291 288 286 284 283 281 280 279 277 273 269 267 267 265 261 255 250 248 244 240 236 232 230 227 223 223 221 216 212 211 211 209 211 215 218 220 224 228 229 233 232 229 233 243 246 257 279 276 265 270 270 255 228 215 193 198 202 171 172 171 172 175 167 172 162 148 146 145 145 147 153 157 159
320 319 318 316 314 312 308 306 302 300 298 297 296 294 293 291 288 286 283 282 280 279 277 275 273 269 267 266 264 261 254 252 250 245 239 234 233 233 230 225 223 220 215 211 211 211 210 211 212 215 219 225 227 228 232 230 229 234 240 248 249 254 264 256 256 262 261 242 220 202 202 201 179 186 178 184 182 166 175 161 148 155 153 151 152 156 160 163
320 318 317 316 315 312 309 306 303 300 298 296 295 293 292 290 288 285 283 281 279 278 276 274 272 268 267 264 262 259 254 254 249 236 231 235 236 234 231 225 221 218 215 213 215 215 212 214 213 215 219 225 227 227 231 229 229 233 236 250 246 238 253 249 243 249 250 246 223 208 201 201 196 199 190 188 186 175 188 166 155 163 158 156 157 159 164 168
319 318 317 316 314 311 309 306 303 301 298 296 294 292 291 290 287 285 282 279 278 276 274 272 270 266 265 262 260 255 251 250 241 229 234 239 238 234 229 225 222 218 215 214 220 222 216 216 215 217 221 226 229 227 230 230 232 238 240 249 240 230 245 238 230 230 232 244 238 220 207 209 205 212 207 179 188 200 204 187 172 167 161 161 161 162 167 171
319 317 316 316 314 311 308 305 303 300 298 297 295 293 292 290 287 284 281 278 276 274 272 270 267 264 263 262 258 250 243 244 238 236 240 239 237 232 227 226 223 217 216 216 223 226 217 217 218 219 222 226 231 231 231 230 233 241 242 247 236 226 239 235 230 225 216 228 252 229 213 214 207 221 219 181 196 210 211 211 182 168 165 166 164 167 170 173
318 317 316 315 312 310 307 304 302 300 299 297 295 294 292 290 287 284 281 277 274 272 270 267 264 261 262 261 255 246 241 243 240 239 242 239 235 231 226 226 222 216 217 217 223 226 218 217 219 221 224 226 231 234 237 236 235 240 242 248 241 229 237 236 233 227 212 207 226 224 214 217 204 206 207 183 194 195 193 198 177 167 168 169 168 171 173 174
318 317 315 314 312 309 306 304 302 300 298 297 296 295 293 291 287 284 281 276 273 270 268 265 262 259 260 258 252 247 241 239 239 239 242 241 236 230 227 224 219 215 216 218 222 224 219 219 221 222 226 228 232 234 239 241 239 241 244 247 244 232 230 234 239 236 223 212 216 220 217 220 210 211 215 199 196 183 186 192 181 174 171 171 173 175 176 177
316 315 314 313 311 309 305 303 301 299 298 296 296 295 293 290 286 284 280 276 272 268 266 262 260 257 257 254 251 248 240 239 244 243 242 243 239 231 227 224 218 215 217 220 223 224 220 221 223 223 227 231 236 238 239 241 240 241 244 245 245 239 227 224 235 242 240 231 226 227 223 226 216 210 212 210 216 198 193 192 183 180 176 176 179 178 178 179
314 313 313 312 310 308 304 302 300 298 297 296 295 294 292 288 285 283 279 275 270 267 264 260 258 256 253 250 248 247 243 245 248 245 242 241 237 230 226 224 218 215 218 222 224 224 222 223 224 226 231 236 240 242 242 241 241 243 245 244 242 244 238 228 229 238 243 239 236 236 228 223 213 206 208 209 209 197 193 189 181 181 181 180 181 181 181 181
312 311 311 310 309 306 303 301 299 297 295 295 294 293 291 287 284 281 277 274 269 265 262 258 257 254 251 249 247 247 249 250 249 246 242 238 234 229 225 224 219 218 220 223 224 224 223 225 227 229 231 235 239 242 244 242 244 247 249 251 244 244 245 240 235 231 236 238 234 234 230 222 216 215 219 210 201 198 196 188 184 185 183 182 184 184 184 183
311 310 310 309 308 306 302 300 298 296 295 293 292 291 290 286 282 280 276 273 269 263 261 258 254 250 251 250 246 249 256 252 248 245 241 237 234 229 227 225 221 221 222 224 226 225 225 227 229 231 230 233 237 238 243 243 244 245 244 248 250 247 243 242 240 232 233 235 225 223 230 230 223 216 211 206 200 200 198 190 188 188 185 186 187 187 186 185
309 309 309 309 308 305 302 299 297 296 295 292 291 290 287 285 282 279 275 273 268 262 259 256 250 248 252 251 245 250 257 251 246 245 240 238 234 230 230 229 224 224 226 227 228 228 227 228 232 234 234 237 237 236 244 246 242 243 241 242 246 249 246 241 239 233 232 230 218 222 236 233 221 211 205 203 197 195 200 199 194 191 190 192 190 188 188 187
308 308 307 307 307 305 302 299 297 296 295 292 290 288 285 285 281 277 274 271 267 262 257 253 250 249 251 250 247 252 255 248 243 241 238 237 235 231 230 231 228 226 229 230 230 231 230 230 233 237 237 239 241 242 247 246 240 240 240 239 240 244 248 243 236 230 230 229 219 224 240 234 218 212 209 206 200 196 204 204 197 195 194 193 192 191 190 188
307 306 306 306 305 304 302 300 297 296 295 291 288 287 284 283 279 274 271 268 266 261 255 253 251 250 252 249 245 249 250 244 242 240 238 239 236 232 230 230 230 227 229 230 229 232 232 231 232 236 237 239 242 244 244 242 239 237 236 236 236 239 245 245 239 229 226 224 218 224 238 232 216 213 211 209 207 203 205 206 202 199 194 193 195 193 191 189
307 306 305 305 304 303 301 299 297 295 295 291 288 287 283 279 275 272 269 265 264 260 253 252 250 248 251 249 242 245 248 245 246 244 241 241 236 234 232 229 229 228 228 229 230 232 232 232 232 234 237 237 238 239 239 240 238 233 233 235 234 236 240 242 243 234 223 218 220 227 234 231 219 215 214 212 212 210 209 210 208 202 196 196 197 195 193 190
307 306 305 304 303 302 300 298 296 295 294 291 288 286 282 276 271 270 267 262 261 257 252 253 254 250 248 251 247 245 250 251 251 246 240 240 237 235 232 229 229 228 226 229 230 232 232 230 231 232 234 235 234 234 234 236 237 232 231 234 235 237 239 238 242 235 221 217 222 227 231 232 225 219 217 213 209 210 210 210 210 205 201 201 199 196 195 192
308 306 305 304 303 302 300 298 296 294 293 290 286 283 280 274 270 269 264 260 257 255 255 252 252 253 248 250 249 245 252 254 250 245 238 237 237 236 234 230 229 226 226 230 229 230 231 229 230 231 232 231 232 230 230 233 234 232 228 230 234 237 239 239 241 231 214 216 223 224 229 231 226 221 216 212 210 212 211 211 213 207 204 207 203 198 197 196
308 307 305 304 303 301 300 298 295 294 293 289 286 283 277 271 268 265 260 255 251 254 260 248 244 253 251 248 248 249 254 252 249 246 239 237 235 235 233 229 229 225 225 229 227 227 228 228 229 231 230 228 228 229 231 234 235 238 236 234 234 234 237 238 239 231 214 216 224 225 230 228 222 221 216 213 215 216 211 210 213 207 204 208 207 204 201 200
308 307 306 305 303 301 300 298 295 294 293 289 289 285 274 271 266 259 260 255 250 255 260 250 247 255 253 248 251 255 253 247 248 246 240 238 234 233 230 227 227 226 227 228 226 226 227 229 229 230 230 228 229 229 233 237 239 243 244 241 240 238 237 235 235 233 222 222 226 228 231 226 221 221 216 215 215 215 212 210 210 207 204 206 209 211 209 205
309 308 307 306 304 302 300 298 295 292 290 285 285 283 276 276 269 263 270 265 255 254 253 251 253 254 252 251 254 258 252 244 245 245 242 238 234 232 227 226 227 227 228 229 228 226 227 232 232 230 232 231 232 231 233 238 239 241 244 245 244 240 240 237 235 233 226 227 229 226 225 225 226 222 215 217 218 215 213 210 209 206 206 208 209 211 211 209
309 308 308 306 304 302 300 298 294 291 289 281 277 277 278 279 271 267 270 266 261 255 249 251 251 249 249 250 250 251 250 246 243 241 242 238 234 232 227 227 230 229 228 228 229 228 228 233 233 231 232 232 234 234 233 236 238 239 240 243 244 241 243 240 235 234 229 231 231 225 225 230 229 222 219 222 221 218 214 212 210 206 206 209 209 208 208 211
309 308 307 306 304 302 300 297 292 287 285 280 276 276 279 277 273 271 267 262 262 255 248 248 246 245 246 246 246 245 247 250 243 236 240 238 235 235 232 231 233 232 230 228 228 230 231 234 233 232 233 231 232 234 234 235 236 237 237 238 239 238 242 239 234 234 230 232 234 227 229 236 230 222 225 227 223 222 218 213 211 208 208 209 211 210 208 212
308 308 306 305 303 301 299 296 289 281 276 276 276 275 277 276 274 273 267 262 261 252 244 245 243 243 246 247 246 243 246 248 242 239 239 236 238 241 236 235 235 234 233 230 230 233 234 235 233 231 232 232 232 231 233 234 235 235 235 236 238 237 240 241 242 243 234 233 236 232 232 235 228 222 225 225 222 221 215 211 211 211 211 211 213 213 208 210
308 307 306 304 303 301 298 292 285 283 279 274 273 275 279 277 273 272 267 261 257 246 239 243 243 244 247 248 243 243 249 245 240 242 239 237 243 245 239 237 237 236 235 233 234 235 236 236 233 231 229 230 232 231 230 231 235 236 234 234 237 239 241 242 245 248 240 235 232 232 236 234 229 225 223 221 220 217 212 212 214 212 211 212 216 216 211 208
310 308 306 303 302 301 295 287 284 286 283 275 274 278 279 276 272 268 263 260 254 239 235 240 241 244 246 244 240 244 250 242 238 242 242 241 244 243 240 238 235 236 238 237 237 238 237 235 234 233 231 229 230 231 229 229 233 236 234 234 235 238 242 243 244 244 241 241 232 231 238 238 234 229 223 219 217 215 214 215 216 212 210 214 215 216 215 210
314 311 309 304 302 300 293 286 285 282 279 277 279 280 278 276 271 264 258 257 249 235 232 236 238 242 245 243 241 245 248 244 242 243 240 240 240 239 239 238 236 236 237 238 239 238 235 234 233 233 233 232 230 230 229 229 232 233 235 237 235 235 238 239 242 243 242 245 241 236 239 238 235 233 230 224 216 216 217 214 216 215 212 213 212 212 215 212
315 313 312 308 304 298 289 285 284 279 278 281 281 278 276 273 267 257 255 255 244 234 235 238 243 247 248 249 247 247 252 249 244 240 239 242 240 238 238 239 240 240 239 238 239 238 235 233 233 232 232 233 232 231 229 228 232 233 234 239 239 236 237 236 238 240 242 244 242 238 237 236 235 232 232 228 217 216 216 212 215 218 211 210 212 212 213 211
315 313 312 310 306 297 289 285 282 278 280 281 278 276 273 268 260 252 252 253 242 238 242 244 247 248 248 251 247 247 252 247 241 242 243 243 239 237 240 241 243 245 243 241 241 240 237 234 233 233 232 232 232 233 230 228 232 233 233 238 241 239 238 237 236 236 238 241 240 237 235 235 238 233 227 227 220 216 216 215 216 215 210 210 213 214 212 209
315 313 312 310 305 298 291 285 280 278 280 280 278 276 268 259 252 247 247 246 238 238 243 244 246 245 247 250 243 242 250 246 244 248 247 245 240 238 242 243 244 246 244 242 243 242 241 242 239 235 234 233 233 233 231 231 232 231 231 235 238 239 238 238 238 236 236 237 236 237 237 237 239 235 228 227 225 221 218 217 217 213 210 210 212 213 211 209
316 313 311 308 301 298 292 285 287 286 282 281 279 272 261 248 245 246 243 240 240 240 240 242 248 246 248 254 246 241 249 245 245 249 245 243 241 238 241 241 239 242 243 242 243 242 241 242 240 237 235 234 234 234 231 232 232 229 229 233 235 236 235 236 238 236 236 237 235 234 237 239 239 236 232 233 230 224 220 217 214 211 211 211 210 212 212 210
318 313 311 305 297 294 287 286 295 293 281 279 275 262 253 244 237 240 243 243 243 242 238 240 250 249 251 256 246 241 247 243 243 249 245 243 243 239 237 235 235 239 240 240 241 239 238 237 237 238 236 232 232 234 231 230 229 228 228 231 232 232 231 231 232 233 236 238 236 233 235 238 240 238 236 240 235 225 226 223 214 211 211 211 212 213 211 210
320 316 311 304 296 293 287 286 291 288 279 274 264 250 249 246 237 242 252 247 240 242 241 240 248 251 254 256 246 241 246 244 243 248 247 243 243 239 233 235 241 242 239 244 246 240 236 234 233 235 236 230 229 230 229 227 226 226 227 228 229 229 230 230 231 233 237 239 237 235 235 237 240 239 235 237 238 233 233 226 214 209 209 209 211 212 210 208
323 318 313 306 299 294 290 286 284 281 276 265 250 241 242 243 246 258 259 246 247 250 248 250 255 256 254 252 249 246 246 246 246 248 248 242 240 242 239 237 241 241 241 247 248 243 240 235 231 232 233 229 227 228 230 230 228 227 226 227 229 229 231 233 232 233 237 240 237 233 234 237 239 239 233 232 235 236 233 224 211 206 206 206 209 211 211 211
324 319 314 308 301 294 287 282 278 275 265 249 239 238 241 244 257 268 257 259 268 260 262 263 260 258 251 245 248 251 248 249 248 246 246 240 235 241 239 233 237 241 241 242 243 245 245 240 235 232 229 227 226 226 229 232 233 229 225 226 229 228 232 237 238 240 243 244 239 233 234 237 238 240 235 230 231 231 229 226 213 204 206 210 212 211 212 212
326 322 314 306 304 302 292 280 275 264 244 233 233 235 241 252 269 273 265 270 273 272 285 278 259 254 249 241 243 247 247 248 246 244 246 239 234 237 236 235 243 245 240 240 241 243 244 240 241 240 232 228 226 224 225 229 231 229 225 226 229 229 233 238 241 244 247 245 240 236 236 236 236 238 235 230 229 228 227 227 221 211 208 211 212 211 212 213
329 326 318 310 314 315 303 283 266 242 224 227 239 244 251 264 275 277 272 272 271 273 283 279 258 253 257 249 234 232 245 248 242 243 247 237 232 238 239 238 244 246 245 245 239 240 247 244 242 243 237 230 228 226 224 225 227 229 227 225 226 229 233 237 240 240 239 240 239 238 238 234 232 235 232 230 228 227 225 224 225 221 211 209 212 210 211 213
330 329 322 319 326 323 308 276 242 221 219 235 252 258 262 276 286 282 276 273 271 272 275 271 261 257 258 254 230 234 259 256 242 245 246 235 234 245 247 243 243 244 246 248 240 240 249 247 240 240 237 234 233 230 228 227 226 227 231 229 227 229 230 232 235 235 235 236 237 239 239 235 233 232 228 228 228 227 225 221 221 221 210 208 212 209 208 212
330 329 324 327 333 332 319 263 229 224 234 249 266 270 270 287 308 299 283 274 271 270 270 273 272 258 246 245 251 263 264 259 258 257 248 241 243 250 252 251 251 251 251 251 246 244 247 244 239 238 239 240 235 228 229 230 225 224 230 233 232 234 234 231 231 232 234 236 236 238 238 234 234 233 230 229 226 224 223 218 219 221 215 212 213 209 209 213
329 329 327 329 331 331 310 263 251 252 254 258 273 284 281 290 330 333 302 278 272 267 268 276 276 265 255 258 266 268 257 255 261 258 252 253 255 253 254 256 256 256 256 254 250 247 244 242 239 238 241 241 233 227 228 230 227 223 225 229 231 232 234 236 234 231 230 233 235 236 237 234 232 233 237 235 223 220 222 221 221 222 221 218 214 210 211 214
331 332 331 328 329 327 286 285 273 269 271 262 264 293 301 283 311 334 324 284 276 271 269 268 265 270 270 267 273 274 260 258 262 257 251 255 258 256 258 267 263 258 258 253 247 246 242 239 239 239 238 237 234 232 231 233 235 231 226 227 229 229 231 234 236 232 228 229 232 233 237 237 231 232 240 238 227 222 224 225 225 223 222 221 218 214 215 218
330 333 334 329 333 338 309 303 279 276 302 277 258 315 307 283 299 317 317 292 281 281 277 264 262 273 270 265 276 281 270 264 266 263 257 258 263 259 257 267 267 261 260 251 244 245 244 240 241 240 238 239 240 239 239 240 243 240 232 227 228 229 229 231 233 233 230 229 229 232 235 233 230 240 246 235 225 223 220 221 225 224 223 223 221 217 216 218
334 340 346 351 15 339 323 329 310 306 331 288 266 325 314 288 306 315 318 310 279 277 288 278 277 280 272 273 280 279 275 271 266 264 262 261 260 258 260 268 267 262 261 252 244 247 246 241 242 243 242 244 244 243 243 241 240 239 233 228 228 230 231 234 237 237 235 230 227 229 232 229 228 245 255 229 219 223 221 217 220 222 223 224 224 220 216 215
343 340 349 4 344 332 333 348 330 318 353 322 294 339 327 299 317 314 326 333 299 290 296 286 290 291 281 281 279 275 278 277 269 265 266 262 254 256 267 273 270 263 256 251 249 249 245 241 241 243 243 242 240 239 240 237 234 236 233 229 231 232 233 239 242 237 234 233 231 230 232 229 226 236 246 224 216 225 225 218 218 221 222 222 223 223 218 214
339 334 343 346 337 345 358 353 347 339 351 340 330 344 330 322 326 304 314 328 314 304 304 290 287 288 285 285 280 278 279 276 272 270 269 267 260 261 270 273 271 265 256 254 256 250 245 243 242 241 239 237 234 232 235 236 234 234 234 233 234 233 234 238 239 233 230 232 234 234 234 231 226 229 234 229 224 225 223 222 221 219 219 219 221 222 220 213
338 339 345 347 353 15 15 353 356 359 335 323 331 343 336 334 341 316 311 323 320 305 300 298 294 288 289 289 283 282 282 276 275 274 270 269 265 265 271 272 269 266 262 260 256 249 246 244 242 242 241 239 240 241 244 244 240 237 238 238 237 234 233 234 234 232 231 233 232 231 234 234 229 228 231 234 233 227 224 226 222 216 216 216 218 220 218 213
339 342 339 335 346 5 9 2 2 359 344 329 317 327 329 326 333 331 315 316 319 310 301 303 304 296 298 298 289 287 288 280 278 276 272 270 268 268 271 270 267 264 262 260 253 246 245 244 242 243 244 244 246 249 250 248 244 242 242 241 239 236 234 234 234 233 235 236 231 228 231 231 228 227 228 234 235 227 225 228 229 226 217 211 213 216 215 213
348 352 348 326 316 342 352 352 357 2 358 347 332 319 320 324 329 330 323 318 320 317 309 306 306 302 302 302 295 292 292 285 279 279 275 272 271 270 269 267 264 261 259 257 251 245 243 243 243 243 244 245 245 247 248 247 245 243 241 240 238 236 234 234 235 233 234 236 231 229 233 229 227 229 227 228 233 224 221 227 232 231 214 204 210 214 210 208
354 358 1 339 332 349 351 340 341 360 5 352 348 341 329 329 334 330 325 322 318 316 313 311 314 313 305 300 298 297 297 294 289 286 283 278 275 272 267 264 260 257 256 255 251 246 243 243 243 244 245 245 244 244 245 245 245 242 240 239 238 236 234 234 234 233 233 236 234 232 232 229 226 230 227 225 226 219 216 223 223 215 199 193 199 198 193 190
357 357 357 353 355 354 353 353 341 345 1 349 344 346 336 329 333 329 321 319 316 316 315 311 314 315 306 302 304 302 302 302 297 295 292 285 280 273 267 264 260 256 255 253 250 247 244 243 244 245 246 245 243 243 243 242 243 242 239 238 237 237 235 234 233 231 232 234 234 232 231 226 223 224 224 223 225 223 222 222 213 203 198 199 199 197 194 192
8 2 348 346 355 339 338 8 356 340 352 349 340 341 335 329 328 322 315 315 316 318 318 315 315 316 311 309 308 304 304 304 300 300 300 294 288 280 269 264 260 256 255 252 250 247 244 243 243 243 244 244 242 242 242 241 242 241 239 236 235 234 234 232 231 229 229 231 231 230 228 223 221 225 226 225 226 226 224 221 216 212 212 210 206 206 209 208
12 7 349 343 356 355 350 6 0 348 351 348 341 335 328 326 326 321 318 317 315 314 315 312 311 313 314 313 311 311 310 306 302 300 298 295 292 286 275 265 258 255 254 252 251 248 245 245 244 242 242 243 242 242 242 241 240 238 235 234 233 233 233 232 231 229 229 228 227 227 225 222 223 228 228 225 224 225 224 221 218 219 218 213 209 211 215 215